Simultaneous Nadir Overpasses (SNOs) Predictions

Prediction of SNOs between FY3D and TERRA Satellite Orbit:

Table of predicted SNOs for the next 14.0 days since TLE Epoch: 9/5/2020
Index Date (FY3D) Time (FY3D) Lat,Lon (FY3D) SZA (FY3D ) Date (TERRA) Time (TERRA) Lat,Lon (TERRA) SZA (TERRA ) Distance(km) Time Diff (sec)
1 09/06/2020 09:24:57 -69.01,-141.89 117.30 09/06/2020 09:25:57 -69.02,-141.92 117.29 1.42 60
2 09/06/2020 10:15:41 68.89, 25.58 62.60 09/06/2020 10:15:24 68.92, 25.59 62.62 2.54 17
3 09/06/2020 11:06:13 -68.31,-166.33 117.97 09/06/2020 11:05:02 -68.36,-167.46 117.93 46.75 71
4 09/09/2020 01:41:20 -69.02, -26.00 116.28 09/09/2020 01:42:26 -69.01, -26.05 116.30 2.96 66
5 09/09/2020 02:32:04 68.91, 141.47 63.62 09/09/2020 02:31:53 68.90, 141.46 63.61 0.98 11
6 09/09/2020 03:22:39 -68.49, -50.64 116.79 09/09/2020 03:21:27 -68.57, -51.33 116.71 29.16 72
7 09/11/2020 17:57:43 -69.04, 89.90 115.25 09/11/2020 17:58:54 -69.05, 89.88 115.24 1.21 71
8 09/11/2020 18:48:27 68.92,-102.63 64.65 09/11/2020 18:48:21 68.94,-102.62 64.67 1.70 6
9 09/11/2020 19:39:06 -68.72, 64.97 115.54 09/11/2020 19:37:52 -68.77, 64.81 115.49 8.95 74
10 09/14/2020 10:14:08 -69.22,-154.43 114.05 09/14/2020 10:15:20 -69.14,-154.12 114.12 14.94 72
11 09/14/2020 11:04:49 68.94, 13.26 65.70 09/14/2020 11:04:49 68.91, 13.23 65.67 3.22 0
12 09/14/2020 11:55:29 -68.79,-179.21 114.45 09/14/2020 11:54:19 -68.81,-179.26 114.43 3.23 70
13 09/17/2020 02:30:34 -69.39, -38.77 112.84 09/17/2020 02:31:46 -69.28, -38.06 112.95 30.61 72
14 09/17/2020 03:21:12 68.96, 129.15 66.75 09/17/2020 03:21:17 68.94, 129.15 66.73 2.27 5
15 09/17/2020 04:11:53 -68.86, -63.39 113.34 09/17/2020 04:10:47 -68.84, -63.35 113.37 2.92 66
